| time (UTC) | temp F | wind direction | speed MPH | gust MPH | rain 1hr in | rain 24hr in | rain mn in | humidity % | barometer mb |
| 20260508203003 | 68 | 351 | 5.0 | 12.0 | 0.00 | 0.02 | 0.01 | 38 | 1014.0 |
| 20260508202004 | 68 | 335 | 4.0 | 14.0 | 0.00 | 0.03 | 0.01 | 40 | 1014.1 |
| 20260508201503 | 68 | 340 | 4.0 | 14.0 | 0.00 | 0.03 | 0.01 | 39 | 1014.0 |
| 20260508200503 | 68 | 344 | 3.0 | 13.0 | 0.00 | 0.03 | 0.01 | 37 | 1014.1 |
| 20260508200004 | 68 | 342 | 4.0 | 13.0 | 0.00 | 0.03 | 0.01 | 38 | 1014.1 |
| 20260508195504 | 68 | 339 | 3.0 | 11.0 | 0.00 | 0.04 | 0.01 | 39 | 1014.1 |
| 20260508195003 | 68 | 335 | 3.0 | 11.0 | 0.00 | 0.04 | 0.01 | 38 | 1014.1 |
| 20260508194504 | 67 | 340 | 4.0 | 10.0 | 0.00 | 0.05 | 0.01 | 39 | 1014.1 |
| 20260508194003 | 67 | 344 | 4.0 | 13.0 | 0.00 | 0.05 | 0.01 | 39 | 1014.2 |
| 20260508193504 | 67 | 331 | 4.0 | 13.0 | 0.00 | 0.05 | 0.01 | 42 | 1014.1 |
| 20260508193003 | 67 | 335 | 5.0 | 13.0 | 0.00 | 0.05 | 0.01 | 39 | 1014.2 |
| 20260508192504 | 67 | 352 | 5.0 | 15.0 | 0.00 | 0.05 | 0.01 | 41 | 1014.3 |
| 20260508192003 | 67 | 340 | 6.0 | 15.0 | 0.00 | 0.05 | 0.01 | 40 | 1014.3 |
| 20260508191505 | 67 | 336 | 5.0 | 13.0 | 0.00 | 0.06 | 0.01 | 40 | 1014.3 |
| 20260508191004 | 67 | 340 | 5.0 | 13.0 | 0.00 | 0.06 | 0.01 | 42 | 1014.6 |
| 20260508190505 | 67 | 332 | 5.0 | 13.0 | 0.00 | 0.07 | 0.01 | 41 | 1014.5 |
| 20260508190004 | 68 | 332 | 4.0 | 13.0 | 0.00 | 0.07 | 0.01 | 40 | 1014.6 |
| 20260508185504 | 68 | 338 | 4.0 | 10.0 | 0.00 | 0.08 | 0.01 | 39 | 1014.6 |
| 20260508185003 | 68 | 345 | 5.0 | 16.0 | 0.00 | 0.08 | 0.01 | 39 | 1014.5 |
| 20260508184504 | 68 | 346 | 5.0 | 16.0 | 0.00 | 0.08 | 0.01 | 39 | 1014.6 |
| 20260508184003 | 68 | 336 | 5.0 | 13.0 | 0.00 | 0.08 | 0.01 | 40 | 1014.5 |
| 20260508183503 | 68 | 328 | 5.0 | 17.0 | 0.00 | 0.08 | 0.01 | 41 | 1014.7 |
| 20260508183004 | 68 | 336 | 6.0 | 17.0 | 0.00 | 0.08 | 0.01 | 37 | 1014.6 |
| 20260508182006 | 69 | 349 | 4.0 | 12.0 | 0.00 | 0.08 | 0.01 | 40 | 1014.6 |
| 20260508181504 | 68 | 327 | 4.0 | 10.0 | 0.00 | 0.08 | 0.01 | 35 | 1014.7 |
| 20260508181004 | 69 | 333 | 3.0 | 8.0 | 0.00 | 0.08 | 0.01 | 32 | 1014.7 |
| 20260508180504 | 69 | 342 | 4.0 | 11.0 | 0.00 | 0.08 | 0.01 | 34 | 1014.8 |
| 20260508180003 | 68 | 341 | 4.0 | 11.0 | 0.00 | 0.08 | 0.01 | 34 | 1014.8 |
| 20260508175503 | 68 | 340 | 4.0 | 9.0 | 0.00 | 0.08 | 0.01 | 35 | 1014.9 |
| 20260508174504 | 68 | 339 | 3.0 | 10.0 | 0.00 | 0.08 | 0.01 | 34 | 1015.0 |
| 20260508174004 | 68 | 338 | 4.0 | 10.0 | 0.00 | 0.08 | 0.01 | 32 | 1015.0 |
| 20260508173503 | 68 | 333 | 3.0 | 10.0 | 0.00 | 0.08 | 0.01 | 32 | 1015.1 |
| 20260508173004 | 68 | 335 | 3.0 | 8.0 | 0.00 | 0.08 | 0.01 | 35 | 1015.1 |
| 20260508172504 | 68 | 335 | 4.0 | 8.0 | 0.00 | 0.08 | 0.01 | 30 | 1015.3 |
| 20260508172004 | 68 | 334 | 4.0 | 11.0 | 0.00 | 0.08 | 0.01 | 34 | 1015.2 |
| 20260508171504 | 68 | 330 | 4.0 | 11.0 | 0.00 | 0.08 | 0.01 | 32 | 1015.4 |
| 20260508171003 | 68 | 336 | 4.0 | 10.0 | 0.00 | 0.08 | 0.01 | 32 | 1015.3 |
| 20260508170505 | 68 | 341 | 4.0 | 10.0 | 0.00 | 0.08 | 0.01 | 33 | 1015.5 |
| 20260508170004 | 67 | 336 | 3.0 | 13.0 | 0.00 | 0.08 | 0.01 | 34 | 1015.3 |
| 20260508165503 | 67 | 336 | 3.0 | 13.0 | 0.00 | 0.08 | 0.01 | 34 | 1015.3 |
| 20260508165004 | 67 | 333 | 3.0 | 9.0 | 0.00 | 0.08 | 0.01 | 35 | 1015.4 |
| 20260508164004 | 67 | 331 | 2.0 | 8.0 | 0.00 | 0.08 | 0.01 | 35 | 1015.4 |
| 20260508163503 | 66 | 327 | 3.0 | 8.0 | 0.00 | 0.08 | 0.01 | 34 | 1015.5 |
| 20260508163004 | 66 | 326 | 3.0 | 8.0 | 0.00 | 0.08 | 0.01 | 34 | 1015.6 |
| 20260508162504 | 67 | 331 | 3.0 | 10.0 | 0.00 | 0.08 | 0.01 | 35 | 1015.7 |
| 20260508162003 | 67 | 333 | 3.0 | 10.0 | 0.00 | 0.08 | 0.01 | 34 | 1015.8 |
| 20260508161004 | 66 | 323 | 3.0 | 10.0 | 0.00 | 0.08 | 0.01 | 33 | 1016.0 |
| 20260508160504 | 66 | 320 | 2.0 | 7.0 | 0.00 | 0.08 | 0.01 | 34 | 1015.9 |
| 20260508160004 | 66 | 326 | 3.0 | 9.0 | 0.00 | 0.08 | 0.01 | 34 | 1016.0 |
| 20260508155504 | 66 | 322 | 3.0 | 9.0 | 0.00 | 0.08 | 0.01 | 35 | 1016.1 |
| 20260508154504 | 66 | 343 | 2.0 | 10.0 | 0.00 | 0.08 | 0.01 | 39 | 1016.1 |
| 20260508154003 | 66 | 334 | 3.0 | 10.0 | 0.00 | 0.08 | 0.01 | 35 | 1016.0 |
| 20260508153504 | 66 | 321 | 2.0 | 7.0 | 0.00 | 0.08 | 0.01 | 37 | 1016.2 |
| 20260508153004 | 65 | 327 | 2.0 | 6.0 | 0.00 | 0.08 | 0.01 | 40 | 1016.2 |
| 20260508152504 | 65 | 332 | 2.0 | 7.0 | 0.00 | 0.08 | 0.01 | 37 | 1016.2 |
| 20260508152003 | 65 | 337 | 2.0 | 7.0 | 0.00 | 0.08 | 0.01 | 38 | 1016.1 |
| 20260508151004 | 65 | 349 | 2.0 | 8.0 | 0.00 | 0.08 | 0.01 | 37 | 1016.1 |
| 20260508150503 | 65 | 6 | 2.0 | 8.0 | 0.00 | 0.08 | 0.01 | 40 | 1016.1 |
| 20260508150005 | 64 | 8 | 2.0 | 9.0 | 0.00 | 0.08 | 0.01 | 39 | 1016.1 |
| 20260508145004 | 64 | 352 | 2.0 | 7.0 | 0.00 | 0.08 | 0.01 | 43 | 1016.3 |
| 20260508144503 | 63 | 350 | 2.0 | 7.0 | 0.00 | 0.08 | 0.01 | 42 | 1016.5 |
| 20260508144004 | 63 | 336 | 2.0 | 6.0 | 0.00 | 0.08 | 0.01 | 43 | 1016.5 |
| 20260508143503 | 63 | 333 | 2.0 | 6.0 | 0.00 | 0.08 | 0.01 | 43 | 1016.6 |
| 20260508143004 | 63 | 18 | 1.0 | 4.0 | 0.00 | 0.08 | 0.01 | 46 | 1016.6 |
| 20260508142003 | 62 | 346 | 2.0 | 7.0 | 0.00 | 0.08 | 0.01 | 47 | 1016.7 |
| 20260508141004 | 62 | 29 | 1.0 | 5.0 | 0.00 | 0.08 | 0.01 | 46 | 1016.7 |
| 20260508140504 | 62 | 41 | 2.0 | 6.0 | 0.00 | 0.08 | 0.01 | 45 | 1016.7 |
| 20260508135503 | 61 | 359 | 3.0 | 10.0 | 0.00 | 0.08 | 0.01 | 48 | 1016.6 |
| 20260508135004 | 61 | 4 | 4.0 | 10.0 | 0.00 | 0.08 | 0.01 | 51 | 1016.6 |
| 20260508134003 | 60 | 1 | 3.0 | 7.0 | 0.00 | 0.08 | 0.01 | 51 | 1016.6 |
| 20260508133504 | 60 | 1 | 4.0 | 9.0 | 0.00 | 0.08 | 0.01 | 48 | 1016.5 |
| 20260508133003 | 60 | 358 | 3.0 | 9.0 | 0.00 | 0.08 | 0.01 | 53 | 1016.7 |
| 20260508132504 | 59 | 9 | 2.0 | 6.0 | 0.00 | 0.08 | 0.01 | 56 | 1016.7 |
| 20260508132004 | 59 | 15 | 3.0 | 6.0 | 0.00 | 0.08 | 0.01 | 55 | 1016.6 |
| 20260508131004 | 58 | 13 | 3.0 | 7.0 | 0.00 | 0.08 | 0.01 | 55 | 1016.6 |
| 20260508130004 | 57 | 2 | 3.0 | 8.0 | 0.00 | 0.08 | 0.01 | 62 | 1016.6 |
| 20260508125503 | 57 | 2 | 4.0 | 9.0 | 0.00 | 0.08 | 0.01 | 60 | 1016.6 |
| 20260508125005 | 56 | 3 | 4.0 | 9.0 | 0.00 | 0.08 | 0.01 | 61 | 1016.7 |
| 20260508124003 | 56 | 8 | 3.0 | 8.0 | 0.00 | 0.08 | 0.01 | 65 | 1016.5 |
| 20260508122505 | 54 | 6 | 3.0 | 9.0 | 0.00 | 0.08 | 0.01 | 68 | 1016.5 |
| 20260508122004 | 54 | 5 | 2.0 | 9.0 | 0.00 | 0.08 | 0.01 | 74 | 1016.5 |
| 20260508121503 | 53 | 3 | 3.0 | 8.0 | 0.00 | 0.08 | 0.01 | 74 | 1016.5 |
| 20260508121004 | 52 | 1 | 3.0 | 8.0 | 0.00 | 0.08 | 0.01 | 76 | 1016.4 |
| 20260508120503 | 51 | 359 | 2.0 | 6.0 | 0.00 | 0.08 | 0.01 | 81 | 1016.4 |
| 20260508120004 | 50 | 359 | 2.0 | 6.0 | 0.00 | 0.08 | 0.01 | 83 | 1016.5 |
| 20260508114003 | 47 | 338 | 1.0 | 2.0 | 0.00 | 0.08 | 0.01 | 94 | 1016.2 |
| 20260508113504 | 47 | 350 | 1.0 | 3.0 | 0.00 | 0.08 | 0.01 | 95 | 1016.1 |
| 20260508113004 | 46 | 351 | 1.0 | 3.0 | 0.00 | 0.08 | 0.01 | 95 | 1016.1 |
| 20260508112004 | 45 | 321 | 1.0 | 3.0 | 0.00 | 0.08 | 0.01 | 95 | 1016.0 |
| 20260508111004 | 45 | 332 | 0.0 | 2.0 | 0.00 | 0.08 | 0.01 | 94 | 1015.6 |
| 20260508110503 | 45 | 316 | 0.0 | 2.0 | 0.00 | 0.08 | 0.01 | 94 | 1015.5 |
| 20260508110003 | 45 | 306 | 0.0 | 2.0 | 0.00 | 0.08 | 0.01 | 94 | 1015.5 |
| 20260508105503 | 45 | 314 | 0.0 | 2.0 | 0.00 | 0.08 | 0.01 | 93 | 1015.4 |
| 20260508105004 | 45 | 332 | 0.0 | 2.0 | 0.00 | 0.08 | 0.01 | 93 | 1015.4 |
| 20260508104503 | 45 | 314 | 0.0 | 2.0 | 0.01 | 0.08 | 0.01 | 93 | 1015.3 |
| 20260508104004 | 45 | 312 | 0.0 | 2.0 | 0.01 | 0.08 | 0.01 | 93 | 1015.2 |
| 20260508103503 | 45 | 310 | 0.0 | 2.0 | 0.01 | 0.08 | 0.01 | 93 | 1015.0 |
| 20260508103003 | 45 | 326 | 0.0 | 3.0 | 0.01 | 0.08 | 0.01 | 93 | 1015.1 |
| 20260508102503 | 45 | 331 | 0.0 | 3.0 | 0.01 | 0.08 | 0.01 | 93 | 1015.0 |
| 20260508102003 | 46 | 320 | 0.0 | 2.0 | 0.01 | 0.08 | 0.01 | 93 | 1015.0 |
| 20260508101504 | 46 | 331 | 0.0 | 3.0 | 0.01 | 0.08 | 0.01 | 93 | 1014.8 |
| 20260508101003 | 46 | 335 | 0.0 | 3.0 | 0.01 | 0.08 | 0.01 | 93 | 1014.8 |
| 20260508100004 | 46 | 349 | 1.0 | 3.0 | 0.01 | 0.08 | 0.01 | 93 | 1014.6 |
| 20260508095503 | 46 | 327 | 1.0 | 4.0 | 0.01 | 0.08 | 0.01 | 94 | 1014.6 |
| 20260508095003 | 47 | 311 | 1.0 | 4.0 | 0.01 | 0.08 | 0.01 | 94 | 1014.6 |
| 20260508094504 | 47 | 322 | 1.0 | 3.0 | 0.00 | 0.07 | 0.00 | 95 | 1014.5 |
| 20260508094003 | 47 | 340 | 1.0 | 3.0 | 0.00 | 0.07 | 0.00 | 95 | 1014.5 |
| 20260508093503 | 47 | 342 | 1.0 | 3.0 | 0.00 | 0.07 | 0.00 | 95 | 1014.4 |
| 20260508093004 | 47 | 345 | 1.0 | 5.0 | 0.00 | 0.07 | 0.00 | 95 | 1014.2 |
| 20260508092503 | 47 | 336 | 1.0 | 5.0 | 0.00 | 0.07 | 0.00 | 96 | 1014.2 |
| 20260508091003 | 46 | 354 | 1.0 | 6.0 | 0.00 | 0.07 | 0.00 | 96 | 1014.1 |
| 20260508090503 | 46 | 352 | 1.0 | 6.0 | 0.00 | 0.07 | 0.00 | 96 | 1014.0 |
| 20260508090004 | 46 | 344 | 1.0 | 4.0 | 0.00 | 0.07 | 0.00 | 95 | 1014.0 |
| 20260508085503 | 46 | 347 | 1.0 | 4.0 | 0.00 | 0.07 | 0.00 | 95 | 1013.9 |
| 20260508085003 | 46 | 347 | 0.0 | 3.0 | 0.00 | 0.07 | 0.00 | 95 | 1013.9 |
| 20260508084003 | 46 | 3 | 1.0 | 2.0 | 0.00 | 0.07 | 0.00 | 95 | 1013.7 |
| 20260508083503 | 46 | 1 | 0.0 | 2.0 | 0.00 | 0.07 | 0.00 | 95 | 1013.8 |
| 20260508083004 | 46 | 24 | 0.0 | 2.0 | 0.00 | 0.07 | 0.00 | 95 | 1013.7 |
| 20260508082504 | 45 | 21 | 0.0 | 2.0 | 0.00 | 0.07 | 0.00 | 95 | 1013.7 |
| 20260508081503 | 45 | 333 | 1.0 | 3.0 | 0.00 | 0.07 | 0.00 | 95 | 1013.6 |
| 20260508081004 | 45 | 326 | 1.0 | 3.0 | 0.00 | 0.07 | 0.00 | 94 | 1013.6 |
| 20260508080504 | 45 | 337 | 0.0 | 2.0 | 0.00 | 0.07 | 0.00 | 95 | 1013.5 |
| 20260508080003 | 45 | 6 | 1.0 | 3.0 | 0.00 | 0.07 | 0.00 | 94 | 1013.4 |
| 20260508075004 | 45 | 3 | 1.0 | 2.0 | 0.00 | 0.07 | 0.00 | 94 | 1013.2 |
| 20260508074503 | 45 | 2 | 0.0 | 2.0 | 0.00 | 0.07 | 0.00 | 94 | 1013.1 |
| 20260508074004 | 45 | 354 | 0.0 | 2.0 | 0.00 | 0.07 | 0.00 | 94 | 1013.1 |
| 20260508073503 | 46 | 354 | 0.0 | 2.0 | 0.00 | 0.07 | 0.00 | 94 | 1013.0 |
| 20260508073003 | 46 | 30 | 0.0 | 2.0 | 0.00 | 0.07 | 0.00 | 94 | 1012.9 |
| 20260508072003 | 46 | 12 | 0.0 | 2.0 | 0.00 | 0.07 | 0.00 | 94 | 1012.7 |
| 20260508071504 | 46 | 9 | 0.0 | 2.0 | 0.00 | 0.07 | 0.00 | 94 | 1012.6 |
| 20260508071003 | 46 | 16 | 0.0 | 2.0 | 0.00 | 0.07 | 0.00 | 94 | 1012.7 |
| 20260508070503 | 46 | 355 | 0.0 | 2.0 | 0.00 | 0.07 | 0.00 | 94 | 1012.5 |
| 20260508070004 | 46 | 354 | 1.0 | 2.0 | 0.00 | 0.07 | 0.00 | 95 | 1012.4 |
| 20260508065004 | 46 | 3 | 1.0 | 4.0 | 0.00 | 0.07 | 0.00 | 95 | 1012.3 |
| 20260508064503 | 46 | 359 | 1.0 | 2.0 | 0.00 | 0.07 | 0.00 | 95 | 1012.1 |
| 20260508064003 | 46 | 1 | 1.0 | 2.0 | 0.00 | 0.08 | 0.00 | 95 | 1012.2 |
| 20260508063503 | 46 | 359 | 0.0 | 2.0 | 0.00 | 0.08 | 0.00 | 95 | 1012.2 |
| 20260508063004 | 46 | 7 | 0.0 | 2.0 | 0.00 | 0.09 | 0.00 | 95 | 1012.2 |
| 20260508062503 | 46 | 349 | 0.0 | 2.0 | 0.00 | 0.09 | 0.00 | 95 | 1012.2 |
| 20260508062003 | 46 | 338 | 0.0 | 2.0 | 0.00 | 0.10 | 0.00 | 95 | 1012.2 |
| 20260508061503 | 46 | 31 | 0.0 | 2.0 | 0.00 | 0.10 | 0.00 | 94 | 1012.2 |
| 20260508061003 | 46 | 63 | 0.0 | 2.0 | 0.00 | 0.10 | 0.00 | 94 | 1012.2 |
| 20260508060503 | 46 | 7 | 0.0 | 2.0 | 0.00 | 0.10 | 0.00 | 94 | 1012.1 |
| 20260508060004 | 45 | 341 | 0.0 | 2.0 | 0.00 | 0.10 | 0.00 | 94 | 1012.1 |
| 20260508055503 | 45 | 354 | 0.0 | 2.0 | 0.00 | 0.10 | 0.00 | 94 | 1012.1 |
| 20260508055004 | 45 | 13 | 0.0 | 2.0 | 0.00 | 0.10 | 0.00 | 94 | 1012.1 |
| 20260508054504 | 45 | 346 | 0.0 | 2.0 | 0.00 | 0.10 | 0.00 | 94 | 1012.1 |
| 20260508054003 | 45 | 349 | 0.0 | 2.0 | 0.00 | 0.10 | 0.00 | 93 | 1012.1 |
| 20260508053505 | 45 | 80 | 0.0 | 2.0 | 0.00 | 0.10 | 0.00 | 93 | 1012.1 |
| 20260508053003 | 45 | 110 | 0.0 | 2.0 | 0.00 | 0.10 | 0.00 | 93 | 1012.2 |
| 20260508052503 | 45 | 108 | 0.0 | 2.0 | 0.00 | 0.10 | 0.00 | 93 | 1012.2 |
| 20260508052003 | 45 | 91 | 0.0 | 2.0 | 0.00 | 0.10 | 0.00 | 93 | 1012.2 |
| 20260508051503 | 45 | 2 | 0.0 | 2.0 | 0.00 | 0.10 | 0.00 | 93 | 1012.2 |
| 20260508051003 | 45 | 58 | 0.0 | 2.0 | 0.00 | 0.10 | 0.00 | 93 | 1012.2 |
| 20260508050503 | 45 | 91 | 0.0 | 2.0 | 0.00 | 0.10 | 0.00 | 93 | 1012.2 |
| 20260508045503 | 46 | 33 | 0.0 | 2.0 | 0.00 | 0.10 | 0.00 | 93 | 1012.2 |
| 20260508045003 | 46 | 10 | 0.0 | 2.0 | 0.00 | 0.10 | 0.00 | 93 | 1012.2 |
| 20260508044504 | 46 | 12 | 0.0 | 2.0 | 0.00 | 0.10 | 0.00 | 93 | 1012.1 |
| 20260508044003 | 46 | 63 | 0.0 | 2.0 | 0.00 | 0.10 | 0.00 | 93 | 1012.1 |
| 20260508043504 | 46 | 105 | 0.0 | 2.0 | 0.00 | 0.10 | 0.00 | 93 | 1012.1 |
| 20260508043003 | 46 | 81 | 0.0 | 2.0 | 0.00 | 0.10 | 0.00 | 92 | 1012.1 |
| 20260508042504 | 46 | 359 | 0.0 | 2.0 | 0.00 | 0.10 | 0.00 | 92 | 1012.0 |
| 20260508042003 | 46 | 8 | 0.0 | 2.0 | 0.00 | 0.10 | 0.00 | 92 | 1012.0 |
| 20260508041504 | 46 | 23 | 0.0 | 2.0 | 0.00 | 0.10 | 0.00 | 92 | 1011.9 |
| 20260508041003 | 46 | 5 | 0.0 | 2.0 | 0.00 | 0.10 | 0.00 | 92 | 1011.9 |
| 20260508040503 | 46 | 9 | 0.0 | 2.0 | 0.00 | 0.10 | 0.00 | 92 | 1012.0 |
| 20260508040003 | 46 | 2 | 0.0 | 2.0 | 0.00 | 0.10 | 0.00 | 92 | 1011.9 |
| 20260508035503 | 46 | 348 | 0.0 | 2.0 | 0.00 | 0.10 | 0.10 | 92 | 1011.8 |
| 20260508035004 | 46 | 358 | 0.0 | 2.0 | 0.00 | 0.10 | 0.10 | 92 | 1011.8 |
| 20260508034503 | 46 | 356 | 0.0 | 2.0 | 0.00 | 0.10 | 0.10 | 92 | 1011.7 |
| 20260508034003 | 47 | 354 | 0.0 | 2.0 | 0.00 | 0.10 | 0.10 | 92 | 1011.6 |
| 20260508033503 | 47 | 6 | 0.0 | 2.0 | 0.00 | 0.10 | 0.10 | 92 | 1011.7 |
| 20260508032503 | 47 | 42 | 0.0 | 2.0 | 0.00 | 0.10 | 0.10 | 92 | 1011.7 |
| 20260508032004 | 47 | 108 | 0.0 | 2.0 | 0.00 | 0.10 | 0.10 | 92 | 1011.7 |
| 20260508031503 | 47 | 39 | 0.0 | 2.0 | 0.00 | 0.10 | 0.10 | 92 | 1011.7 |
| 20260508031003 | 47 | 352 | 0.0 | 2.0 | 0.00 | 0.10 | 0.10 | 92 | 1011.7 |
| 20260508030503 | 47 | 337 | 0.0 | 2.0 | 0.00 | 0.10 | 0.10 | 92 | 1011.8 |
| 20260508030004 | 48 | 11 | 0.0 | 2.0 | 0.00 | 0.10 | 0.10 | 92 | 1011.8 |
| 20260508025503 | 48 | 34 | 0.0 | 2.0 | 0.00 | 0.10 | 0.10 | 92 | 1011.8 |
| 20260508025003 | 48 | 24 | 0.0 | 2.0 | 0.00 | 0.10 | 0.10 | 92 | 1011.8 |
| 20260508024503 | 48 | 349 | 0.0 | 2.0 | 0.00 | 0.10 | 0.10 | 92 | 1011.8 |
| 20260508024003 | 48 | 339 | 0.0 | 2.0 | 0.00 | 0.10 | 0.10 | 92 | 1011.7 |
| 20260508023003 | 48 | 328 | 0.0 | 2.0 | 0.00 | 0.10 | 0.10 | 91 | 1011.8 |
| 20260508022504 | 48 | 325 | 0.0 | 2.0 | 0.00 | 0.10 | 0.10 | 91 | 1011.8 |
| 20260508022003 | 48 | 337 | 0.0 | 2.0 | 0.00 | 0.10 | 0.10 | 91 | 1011.8 |
| 20260508021504 | 48 | 334 | 0.0 | 2.0 | 0.00 | 0.10 | 0.10 | 91 | 1011.9 |
| 20260508021003 | 48 | 317 | 0.0 | 2.0 | 0.00 | 0.10 | 0.10 | 91 | 1011.9 |
| 20260508020503 | 49 | 343 | 0.0 | 2.0 | 0.00 | 0.10 | 0.10 | 90 | 1011.8 |
| 20260508020003 | 49 | 3 | 0.0 | 2.0 | 0.00 | 0.10 | 0.10 | 90 | 1011.7 |
| 20260508015504 | 49 | 358 | 0.0 | 2.0 | 0.00 | 0.10 | 0.10 | 90 | 1011.6 |
| 20260508015004 | 49 | 331 | 0.0 | 2.0 | 0.00 | 0.10 | 0.10 | 90 | 1011.6 |
| 20260508014504 | 50 | 336 | 0.0 | 2.0 | 0.00 | 0.10 | 0.10 | 90 | 1011.5 |
| 20260508013503 | 50 | 359 | 0.0 | 2.0 | 0.00 | 0.10 | 0.10 | 90 | 1011.5 |
| 20260508013004 | 50 | 358 | 0.0 | 2.0 | 0.00 | 0.10 | 0.10 | 90 | 1011.4 |
| 20260508012503 | 50 | 2 | 0.0 | 2.0 | 0.00 | 0.10 | 0.10 | 90 | 1011.4 |
| 20260508012003 | 50 | 357 | 0.0 | 2.0 | 0.00 | 0.10 | 0.10 | 89 | 1011.3 |
| 20260508011003 | 51 | 328 | 0.0 | 2.0 | 0.00 | 0.10 | 0.10 | 89 | 1011.2 |
| 20260508010503 | 51 | 337 | 0.0 | 2.0 | 0.00 | 0.10 | 0.10 | 89 | 1011.1 |
| 20260508010004 | 51 | 335 | 0.0 | 2.0 | 0.00 | 0.10 | 0.10 | 89 | 1011.1 |
| 20260508005003 | 52 | 355 | 0.0 | 2.0 | 0.00 | 0.10 | 0.10 | 89 | 1011.0 |
| 20260508004503 | 52 | 337 | 0.0 | 2.0 | 0.00 | 0.10 | 0.10 | 89 | 1010.9 |
| 20260508004003 | 52 | 312 | 0.0 | 2.0 | 0.00 | 0.10 | 0.10 | 88 | 1011.0 |
| 20260508003003 | 52 | 345 | 0.0 | 2.0 | 0.00 | 0.10 | 0.10 | 88 | 1010.8 |
| 20260508002503 | 52 | 357 | 0.0 | 2.0 | 0.00 | 0.10 | 0.10 | 88 | 1010.7 |
| 20260508002003 | 53 | 333 | 0.0 | 2.0 | 0.00 | 0.10 | 0.10 | 88 | 1010.7 |
| 20260508001503 | 53 | 331 | 0.0 | 2.0 | 0.00 | 0.10 | 0.10 | 87 | 1010.7 |
| 20260508001003 | 53 | 332 | 1.0 | 2.0 | 0.00 | 0.10 | 0.10 | 87 | 1010.6 |
| 20260508000503 | 53 | 324 | 1.0 | 2.0 | 0.00 | 0.10 | 0.10 | 87 | 1010.5 |
| 20260508000003 | 53 | 314 | 1.0 | 2.0 | 0.00 | 0.10 | 0.10 | 87 | 1010.4 |
| 20260507235503 | 53 | 326 | 1.0 | 3.0 | 0.00 | 0.10 | 0.10 | 86 | 1010.2 |
| 20260507235003 | 53 | 336 | 1.0 | 3.0 | 0.00 | 0.10 | 0.10 | 86 | 1010.3 |
| 20260507233504 | 54 | 308 | 1.0 | 2.0 | 0.00 | 0.10 | 0.10 | 86 | 1010.2 |
| 20260507233004 | 54 | 321 | 1.0 | 2.0 | 0.00 | 0.10 | 0.10 | 86 | 1010.2 |
| 20260507232503 | 54 | 353 | 1.0 | 4.0 | 0.00 | 0.10 | 0.10 | 85 | 1010.2 |
| 20260507232004 | 54 | 354 | 1.0 | 4.0 | 0.00 | 0.10 | 0.10 | 85 | 1010.2 |
| 20260507231003 | 54 | 1 | 2.0 | 4.0 | 0.00 | 0.10 | 0.10 | 84 | 1010.1 |
| 20260507230503 | 54 | 1 | 1.0 | 4.0 | 0.00 | 0.10 | 0.10 | 85 | 1010.1 |
| 20260507230003 | 54 | 357 | 1.0 | 4.0 | 0.00 | 0.10 | 0.10 | 86 | 1010.0 |
| 20260507225504 | 54 | 351 | 1.0 | 4.0 | 0.00 | 0.10 | 0.10 | 86 | 1010.2 |
| 20260507225004 | 54 | 324 | 1.0 | 3.0 | 0.00 | 0.10 | 0.10 | 86 | 1010.2 |
| 20260507224504 | 54 | 330 | 1.0 | 3.0 | 0.00 | 0.10 | 0.10 | 84 | 1010.3 |
| 20260507224003 | 54 | 351 | 1.0 | 3.0 | 0.00 | 0.10 | 0.10 | 84 | 1010.2 |
| 20260507223504 | 55 | 356 | 1.0 | 3.0 | 0.00 | 0.10 | 0.10 | 84 | 1010.3 |
| 20260507223003 | 55 | 352 | 1.0 | 5.0 | 0.00 | 0.10 | 0.10 | 86 | 1010.2 |
| 20260507222503 | 55 | 346 | 1.0 | 5.0 | 0.00 | 0.10 | 0.10 | 88 | 1010.3 |
| 20260507222004 | 55 | 357 | 2.0 | 6.0 | 0.00 | 0.10 | 0.10 | 88 | 1010.5 |
| 20260507221503 | 55 | 359 | 2.0 | 6.0 | 0.00 | 0.10 | 0.10 | 87 | 1010.4 |
| 20260507221004 | 55 | 341 | 1.0 | 3.0 | 0.00 | 0.10 | 0.10 | 88 | 1010.4 |
| 20260507220504 | 54 | 349 | 1.0 | 5.0 | 0.00 | 0.10 | 0.10 | 88 | 1010.5 |
| 20260507220004 | 54 | 340 | 1.0 | 5.0 | 0.00 | 0.10 | 0.10 | 87 | 1010.6 |
| 20260507214503 | 54 | 30 | 1.0 | 2.0 | 0.01 | 0.10 | 0.10 | 89 | 1010.3 |
| 20260507214004 | 54 | 101 | 1.0 | 2.0 | 0.01 | 0.10 | 0.10 | 88 | 1010.0 |
| 20260507213004 | 54 | 49 | 1.0 | 3.0 | 0.01 | 0.10 | 0.10 | 86 | 1010.2 |
| 20260507212503 | 54 | 14 | 1.0 | 4.0 | 0.02 | 0.10 | 0.10 | 87 | 1010.3 |
| 20260507212004 | 54 | 344 | 1.0 | 4.0 | 0.02 | 0.10 | 0.10 | 87 | 1010.6 |
| 20260507211503 | 54 | 331 | 1.0 | 2.0 | 0.02 | 0.10 | 0.10 | 89 | 1011.0 |
| 20260507210504 | 54 | 334 | 1.0 | 2.0 | 0.02 | 0.10 | 0.10 | 88 | 1010.5 |
| 20260507205504 | 54 | 15 | 0.0 | 2.0 | 0.02 | 0.09 | 0.09 | 87 | 1009.9 |
| 20260507205003 | 54 | 342 | 0.0 | 2.0 | 0.03 | 0.09 | 0.09 | 86 | 1010.3 |
| 20260507204503 | 55 | 342 | 0.0 | 2.0 | 0.03 | 0.09 | 0.09 | 86 | 1010.3 |
| 20260507204003 | 55 | 331 | 0.0 | 2.0 | 0.03 | 0.09 | 0.09 | 86 | 1010.3 |
| 20260507203504 | 55 | 317 | 0.0 | 2.0 | 0.03 | 0.09 | 0.09 | 86 | 1010.5 |